Powrót do katalogu

STARLINK-30897

AktywnyŁącznośćVLEO
NORAD 58360·PAYLOAD·🇺🇸 United States

Wystrzelony Nov 18, 2023 z Cape Canaveral Space Force Station

Loading…

Następne Przeloty (najbliższe 24 godziny)

TLE

ŚwieżeSource: CelesTrak SupGP

Epoka: Sep 14, 2026, 20:52 UTC

1 58360C 23177K   26257.86993056 -.00037893  00000+0 -13707-2 0  2578
2 58360  43.0040  16.8584 0001528 270.1171 248.4965 15.27639431    12

Śledź STARLINK-30897 w czasie rzeczywistym z AllMySat

Download on the App Store